Regional Weather Roundup
Issued by NWS

Home | Current Version | Previous Version | Graphics & Text | Print | Product List | Glossary On
Versions: 1 2 3 4 5 6 7 8 9 10 11 12 13 14 15 16 17 18 19 20 21 22 23 24 25 26 27
000
ASUS45 KBOU 231107
RWRCO

WEATHER ROUNDUP FOR COLORADO
NATIONAL WEATHER SERVICE DENVER/BOULDER CO
500 AM MDT SUN JUL 23 2017

NOTE: "FAIR" INDICATES FEW OR NO CLOUDS BELOW 12000 FEET WITH NO
SIGNIFICANT WEATHER AND/OR OBSTRUCTIONS TO VISIBILITY.

COZ001>005-013-030-031-231200-
...NORTHWEST COLORADO...

CITY           SKY/WX    TMP DP  RH WIND       PRES   REMARKS
CRAIG          FAIR      47  41  80 W3        30.25S
HAYDEN         FAIR      55  36  47 E15       30.28S
MEEKER         FAIR      50  41  71 N3        30.27R
RABBIT EARS PA FAIR      54  32  43 E5        30.58S
STEAMBOAT SPGS FAIR      47  39  73 CALM      30.32R
WALDEN         FAIR      43  34  70 CALM      30.43S
$$

COZ006>008-011-231200-
...WEST CENTRAL VALLEYS...

CITY           SKY/WX    TMP DP  RH WIND       PRES   REMARKS
GRAND JUNCTION FAIR      69  49  48 E14       30.13R
MONTROSE       FAIR      63  48  58 S10       30.23S
EAGLE          FAIR      52  44  74 SE3       30.35R
RIFLE          FAIR      58  42  55 E5        30.21S
DELTA          FAIR      65  49  55 CALM      30.19R
NUCLA          FAIR      61  45  55 E7        30.25S
$$

COZ017>023-064>068-231200-
...SOUTHWEST COLORADO...

CITY           SKY/WX    TMP DP  RH WIND       PRES   REMARKS
DURANGO        CLOUDY    57  52  83 SE3       30.30R
CORTEZ         FAIR      56  52  86 E3        30.22R
PAGOSA SPRINGS MOCLDY    59  47  65 CALM      30.38R
TELLURIDE      FAIR      51  42  71 SE7       30.47R
WOLF CREEK PAS NOT AVBL
$$

COZ009-010-012-014-032>034-037-058>063-231200-
...CENTRAL COLORADO...

CITY           SKY/WX    TMP DP  RH WIND       PRES   REMARKS
ASPEN          FAIR      53  42  66 S5        30.37R
BUENA VISTA    FAIR      54  46  74 NE3       30.42R
COPPER MTN     FAIR      54  32  43 S5        30.69S
BERTHOUD PASS  FAIR      45  32  61 SE9       30.73S
COTTONWOOD PAS FAIR      59  39  47 W7        30.53S
GUNNISON       NOT AVBL
KREMMLING      FAIR      50  43  76 CALM      30.41R
LEADVILLE      FAIR      41  37  86 NE3       30.54R
MONARCH PASS   FAIR      46  36  66 E12       30.77S
SALIDA         FAIR      52  47  83 W6        30.47S
SUNLIGHT       FAIR      50  34  53 E5        30.61S
WILKERSON PASS FAIR      50  37  62 NE7       30.66S
$$

COZ069>075-231200-
...SAN LUIS VALLEY/SANGRE DE CRISTO MOUNTAINS...

CITY           SKY/WX    TMP DP  RH WIND       PRES   REMARKS
ALAMOSA        FAIR      53  52  96 S5        30.36R
DEL NORTE      FAIR      52  47  82 W12       30.40S
LA VETA PASS   NOT AVBL
SAGUACHE         N/A    N/A N/A N/A MISG        N/A
$$

COZ035-036-038>040-231200-
...NORTHERN COLORADO FRONT RANGE...

CITY           SKY/WX    TMP DP  RH WIND       PRES   REMARKS
DENVER INTL AP FAIR      63  53  70 W8        30.19R
DMNS CITY PARK   N/A     65  51  61 SW3       30.20R
AURORA         PTCLDY    62  55  75 SW6       30.22R
FRONT RANGE AP FAIR      64  55  72 SW10      30.20S
ERIE MUNI ARPT FAIR      59  54  83 SW3       30.18S
BOULDER MUN AP FAIR      63  50  63 S3        30.19S
CENTENNIAL     FAIR      62  52  69 W7        30.23S
BROOMFIELD     FAIR      66  50  55 NW8       30.22S
FORT COLLINS   FAIR      59  52  77 N3        30.19R
LONGMONT       FAIR      60  51  74 CALM      30.20S
$$

COZ041-046-047-076>085-087-088-231200-
...PIKES PEAK/PALMER DIVIDE AND SOUTHERN FOOTHILLS...

CITY           SKY/WX    TMP DP  RH WIND       PRES   REMARKS
COLO. SPRINGS  FAIR      65  51  60 CALM      30.29R
A. F. ACADEMY  FAIR      54  50  88 N6        30.30R
SCHRIEVER AFB  FAIR      59  50  73 CALM      30.29R
CHEYENNE MTN   FAIR      61  48  62 CALM      30.28R
ELLICOTT       FAIR     N/A N/A N/A NE3       30.27R
FALCON           N/A     56  48  75 W5        30.34R
FORT CARSON    FAIR      64  50  60 CALM      30.26R
LIMON          FAIR      56  54  93 CALM      30.22S
MONUMENT HILL  FAIR      54  50  87 SW7       30.34R
CANON CITY     CLEAR     64  55  72 W9        30.23S
WALSENBURG     FAIR      61  54  77 CALM      30.27R
TRINIDAD       FAIR      60  53  77 W6        30.24S
$$

COZ042>045-048>051-090-091-231200-
...NORTHEAST COLORADO...

CITY           SKY/WX    TMP DP  RH WIND       PRES   REMARKS
GREELEY ARPT   FAIR      59  55  87 N5        30.17R
AKRON          FAIR      67  46  47 S8        30.16S
BURLINGTON     FAIR      58  54  86 NW6       30.13S
WRAY           NOT AVBL
YUMA           FAIR      57  52  82 W6        30.13S
STERLING       FAIR      59  55  88 NE3       30.12S
HOLYOKE        FAIR      61  55  82 NW3       30.11F
FORT MORGAN    FAIR      63  49  59 CALM      30.16S
$$

COZ086-089-092>099-231200-
...SOUTHEAST COLORADO...

CITY           SKY/WX    TMP DP  RH WIND       PRES   REMARKS
PUEBLO         FAIR      66  49  54 CALM      30.18R
LA JUNTA       FAIR      65  51  60 N3        30.14R
LAMAR          FAIR      59  55  87 SW3       30.09S
SPRINGFIELD      N/A     61  58  90 NW10      30.12R
$$




USA.gov is the U.S. government's official web portal to all federal, state and local government web resources and services.